Location: Ellerstadt
(49.4644°N, 8.2615°E)
Time: 07:13:43
(UTC+00:00)

SPOT 3 Rocket - Pass Details

Date: 23 June 2021
Orbit: 779 x 794 km, 98.7° (Epoch: 03 August)

Event Time Altitude Azimuth Distance (km) Brightness Sun altitude
Rises 21:17:27 0° 203° (SSW) 3,264 6.4 -11.4°
Reaches altitude 10° 21:20:16 10° 219° (SW) 2,344 5.8 -11.7°
Maximum altitude 21:24:13 22° 269° (W) 1,675 5.6 -12.0°
Drops below altitude 10° 21:28:13 10° 319° (NW) 2,365 7.4 -12.3°
Sets 21:31:06 0° 335° (NNW) 3,302 8.9 -12.5°
